QPF
0.00 0.00 0.01 0.01 0.00 0.00 0.00 0.00 0.00 0.00 0.00 0.00 0.01 0.00 0.00 0.00 0.00 0.00 0.00 0.00 0.00 0.00 0.00 0.00 0.00 0.00 0.00 0.00 0.00 0.00 0.00 0.00 0.00 0.00 0.00 0.00 0.00 0.00 0.00 0.00 0.00 0.01 0.00
0.00 0.00 0.01 0.01 0.00 0.00 0.00 0.00 0.00 0.00 0.00 0.00 0.03 0.04 0.01 0.01 0.00 0.00 0.00 0.00 0.00 0.00 0.00 0.00 0.00 0.00 0.00 0.00 0.00 0.00 0.00 0.00 0.00 0.00 0.00 0.00 0.00 0.00 0.00 0.00 0.00 0.00 0.01
0.00 0.00 0.00 0.02 0.01 0.00 0.00 0.00 0.00 0.00 0.00 0.00 0.06 0.07 0.05 0.05 0.00 0.00 0.00 0.00 0.00 0.00 0.00 0.00 0.00 0.00 0.00 0.00 0.00 0.00 0.00 0.00 0.00 0.00 0.00 0.00 0.00 0.00 0.00 0.00 0.00 0.00 0.00
0.00 0.00 0.00 0.01 0.01 0.01 0.00 0.00 0.00 0.00 0.00 0.00 0.03 0.05 0.08 0.04 0.00 0.00 0.00 0.00 0.00 0.00 0.00 0.00 0.00 0.00 0.00 0.00 0.00 0.00 0.00 0.00 0.00 0.00 0.00 0.00 0.00 0.00 0.00 0.00 0.00 0.00 0.00
0.00 0.00 0.00 0.02 0.03 0.00 0.00 0.00 0.00 0.00 0.00 0.00 0.01 0.06 0.08 0.02 0.00 0.00 0.00 0.00 0.00 0.00 0.00 0.00 0.00 0.00 0.00 0.00 0.00 0.00 0.00 0.00 0.00 0.00 0.00 0.00 0.00 0.00 0.00 0.00 0.00 0.00 0.00
0.00 0.00 0.00 0.04 0.02 0.00 0.00 0.01 0.00 0.00 0.00 0.00 0.00 0.01 0.03 0.01 0.00 0.00 0.00 0.00 0.00 0.00 0.00 0.00 0.00 0.00 0.00 0.00 0.00 0.00 0.00 0.00 0.00 0.00 0.00 0.00 0.00 0.00 0.00 0.00 0.00 0.00 0.00
0.01 0.01 0.01 0.05 0.01 0.00 0.01 0.01 0.00 0.00 0.00 0.00 0.00 0.00 0.00 0.00 0.00 0.00 0.00 0.00 0.00 0.00 0.00 0.00 0.00 0.00 0.00 0.00 0.00 0.00 0.00 0.00 0.00 0.00 0.00 0.00 0.00 0.00 0.00 0.00 0.00 0.00 0.00
0.01 0.02 0.01 0.06 0.01 0.00 0.01 0.01 0.00 0.00 0.00 0.00 0.00 0.00 0.00 0.00 0.00 0.00 0.00 0.00 0.00 0.00 0.00 0.00 0.00 0.00 0.00 0.00 0.00 0.00 0.00 0.00 0.00 0.00 0.00 0.00 0.00 0.00 0.00 0.00 0.00 0.00 0.00
0.03 0.01 0.01 0.03 0.01 0.00 0.00 0.01 0.01 0.00 0.00 0.00 0.00 0.00 0.00 0.00 0.00 0.00 0.00 0.00 0.00 0.00 0.00 0.00 0.00 0.00 0.00 0.00 0.00 0.00 0.00 0.00 0.00 0.00 0.00 0.00 0.00 0.00 0.00 0.00 0.00 0.00 0.00
0.07 0.04 0.01 0.02 0.00 0.00 0.00 0.00 0.01 0.00 0.00 0.00 0.00 0.00 0.00 0.00 0.00 0.00 0.00 0.00 0.00 0.00 0.00 0.00 0.00 0.00 0.00 0.00 0.00 0.00 0.00 0.00 0.00 0.00 0.00 0.00 0.00 0.00 0.00 0.00 0.00 0.00 0.00
0.09 0.08 0.02 0.01 0.00 0.00 0.00 0.00 0.02 0.02 0.00 0.00 0.00 0.00 0.00 0.00 0.00 0.00 0.00 0.00 0.00 0.00 0.00 0.00 0.00 0.00 0.00 0.00 0.00 0.00 0.00 0.00 0.00 0.00 0.00 0.00 0.00 0.00 0.00 0.00 0.00 0.00 0.00
0.07 0.06 0.05 0.00 0.00 0.00 0.00 0.00 0.00 0.01 0.01 0.00 0.00 0.00 0.00 0.00 0.00 0.00 0.00 0.00 0.00 0.00 0.00 0.00 0.00 0.00 0.00 0.00 0.00 0.00 0.00 0.00 0.00 0.00 0.00 0.00 0.00 0.00 0.00 0.00 0.00 0.00 0.00
0.16 0.05 0.05 0.01 0.00 0.00 0.00 0.00 0.00 0.00 0.01 0.00 0.00 0.00 0.00 0.00 0.00 0.00 0.00 0.00 0.00 0.00 0.00 0.00 0.00 0.00 0.00 0.00 0.00 0.00 0.00 0.00 0.00 0.00 0.00 0.00 0.00 0.00 0.00 0.00 0.00 0.00 0.00
0.28 0.22 0.05 0.01 0.00 0.00 0.00 0.00 0.00 0.00 0.00 0.00 0.00 0.00 0.00 0.00 0.00 0.00 0.00 0.00 0.00 0.00 0.00 0.00 0.00 0.00 0.00 0.00 0.00 0.00 0.00 0.00 0.00 0.00 0.00 0.00 0.00 0.00 0.00 0.00 0.00 0.01 0.02
0.25 0.38 0.30 0.14 0.05 0.00 0.00 0.00 0.00 0.00 0.00 0.00 0.00 0.00 0.00 0.00 0.00 0.00 0.00 0.00 0.00 0.00 0.00 0.00 0.00 0.00 0.00 0.00 0.00 0.00 0.00 0.00 0.00 0.00 0.00 0.00 0.00 0.00 0.00 0.00 0.00 0.00 0.03
0.28 0.13 0.18 0.22 0.18 0.06 0.03 0.00 0.00 0.00 0.00 0.00 0.00 0.00 0.00 0.00 0.00 0.00 0.00 0.00 0.00 0.00 0.00 0.00 0.00 0.00 0.00 0.00 0.00 0.00 0.00 0.00 0.00 0.00 0.00 0.00 0.00 0.00 0.00 0.00 0.00 0.00 0.00
0.16 0.12 0.05 0.01 0.05 0.05 0.07 0.04 0.01 0.00 0.00 0.00 0.00 0.00 0.00 0.00 0.00 0.00 0.00 0.00 0.00 0.00 0.00 0.00 0.00 0.00 0.00 0.00 0.00 0.00 0.00 0.00 0.00 0.00 0.00 0.00 0.00 0.00 0.00 0.00 0.00 0.00 0.00
0.03 0.06 0.05 0.01 0.00 0.02 0.04 0.17 0.05 0.03 0.03 0.01 0.01 0.00 0.00 0.00 0.00 0.00 0.00 0.00 0.00 0.00 0.00 0.00 0.00 0.00 0.00 0.00 0.00 0.00 0.00 0.00 0.00 0.00 0.00 0.00 0.00 0.00 0.00 0.00 0.00 0.00 0.00
0.03 0.01 0.02 0.02 0.01 0.01 0.02 0.09 0.02 0.00 0.10 0.05 0.04 0.06 0.06 0.02 0.00 0.00 0.00 0.00 0.00 0.00 0.00 0.00 0.00 0.00 0.00 0.00 0.00 0.00 0.00 0.00 0.00 0.00 0.00 0.00 0.00 0.00 0.00 0.00 0.00 0.00 0.00
0.05 0.03 0.00 0.01 0.00 0.01 0.02 0.03 0.02 0.01 0.02 0.04 0.04 0.07 0.09 0.06 0.02 0.00 0.00 0.00 0.00 0.00 0.00 0.00 0.00 0.00 0.00 0.00 0.00 0.00 0.00 0.00 0.00 0.00 0.00 0.00 0.00 0.00 0.00 0.00 0.00 0.00 0.00
0.13 0.03 0.02 0.01 0.01 0.00 0.01 0.01 0.01 0.02 0.02 0.02 0.01 0.06 0.12 0.17 0.10 0.03 0.00 0.00 0.00 0.00 0.00 0.00 0.00 0.00 0.00 0.00 0.00 0.00 0.00 0.00 0.00 0.00 0.00 0.00 0.00 0.00 0.00 0.00 0.00 0.00 0.00
0.18 0.21 0.23 0.11 0.10 0.08 0.11 0.05 0.01 0.01 0.03 0.01 0.02 0.05 0.15 0.22 0.19 0.05 0.01 0.01 0.00 0.00 0.00 0.00 0.01 0.00 0.01 0.00 0.00 0.00 0.00 0.00 0.00 0.00 0.00 0.00 0.00 0.00 0.00 0.00 0.00 0.00 0.00
0.09 0.12 0.09 0.03 0.09 0.17 0.09 0.21 0.18 0.15 0.13 0.16 0.17 0.16 0.21 0.19 0.16 0.10 0.07 0.07 0.04 0.04 0.06 0.10 0.10 0.08 0.03 0.00 0.00 0.00 0.00 0.00 0.00 0.00 0.00 0.00 0.00 0.00 0.00 0.00 0.00 0.00 0.00
0.01 0.04 0.10 0.17 0.24 0.21 0.25 0.36 0.70 0.89 0.78 0.56 0.53 0.45 0.40 0.32 0.30 0.25 0.25 0.24 0.24 0.23 0.20 0.14 0.11 0.09 0.05 0.01 0.00 0.00 0.00 0.00 0.00 0.00 0.00 0.00 0.00 0.00 0.00 0.00 0.00 0.00 0.00
0.00 0.00 0.00 0.01 0.04 0.18 0.25 0.22 0.24 0.24 0.26 0.25 0.19 0.13 0.15 0.18 0.24 0.29 0.32 0.31 0.27 0.20 0.11 0.04 0.01 0.00 0.00 0.00 0.00 0.00 0.00 0.00 0.00 0.00 0.00 0.00 0.00 0.00 0.00 0.00 0.00 0.00 0.00
0.00 0.00 0.00 0.00 0.01 0.04 0.05 0.06 0.15 0.20 0.18 0.17 0.14 0.10 0.11 0.09 0.07 0.09 0.15 0.20 0.18 0.13 0.07 0.03 0.01 0.01 0.00 0.00 0.00 0.00 0.00 0.00 0.00 0.00 0.00 0.00 0.00 0.00 0.00 0.00 0.00 0.00 0.00
MSLP
1012.92 1013.14 1013.78 1014.16 1014.47 1014.80 1015.09 1015.29 1015.40 1015.55 1015.77 1015.82 1015.95 1016.22 1016.46 1016.72 1016.96 1017.25 1017.56 1017.78 1018.16 1018.38 1018.56 1018.68 1018.90 1019.03 1019.17 1019.46 1019.57 1019.69 1019.67 1019.78 1019.88 1019.94 1019.93 1019.91 1019.87 1019.84 1019.82 1019.70 1019.45 1019.23 1019.31
1012.63 1012.98 1013.74 1014.07 1014.46 1014.76 1015.05 1015.33 1015.61 1015.69 1015.81 1015.92 1015.93 1016.21 1016.54 1016.82 1017.05 1017.37 1017.76 1018.07 1018.36 1018.65 1018.81 1018.89 1019.20 1019.31 1019.49 1019.68 1019.87 1019.94 1020.05 1020.21 1020.27 1020.34 1020.35 1020.32 1020.26 1020.21 1020.12 1020.08 1019.94 1019.74 1019.60
1012.84 1013.09 1013.71 1014.04 1014.46 1014.82 1015.16 1015.35 1015.71 1015.91 1016.04 1016.02 1016.09 1016.33 1016.60 1016.90 1017.21 1017.54 1017.97 1018.34 1018.60 1018.84 1019.05 1019.18 1019.41 1019.64 1019.84 1019.93 1020.09 1020.17 1020.31 1020.51 1020.62 1020.65 1020.60 1020.34 1020.43 1020.49 1020.44 1020.35 1020.27 1020.14 1020.01
1012.80 1013.26 1013.69 1014.27 1014.53 1014.97 1015.33 1015.53 1015.76 1016.08 1016.29 1016.32 1016.30 1016.66 1016.91 1017.14 1017.46 1017.79 1018.18 1018.52 1018.81 1019.05 1019.33 1019.66 1019.83 1019.91 1020.04 1020.19 1020.29 1020.36 1020.54 1020.71 1020.83 1020.80 1020.62 1020.59 1020.59 1020.80 1020.71 1020.61 1020.51 1020.45 1020.40
1013.12 1013.41 1013.78 1014.30 1014.64 1014.98 1015.42 1015.65 1015.95 1016.18 1016.42 1016.62 1016.73 1016.78 1017.12 1017.41 1017.86 1018.10 1018.52 1018.76 1019.03 1019.36 1019.69 1019.97 1020.15 1020.22 1020.30 1020.36 1020.53 1020.70 1020.91 1021.10 1021.26 1021.09 1021.08 1021.05 1020.86 1021.05 1021.01 1020.97 1020.87 1020.78 1020.73
1013.51 1013.64 1013.97 1014.41 1014.80 1015.11 1015.50 1015.78 1016.16 1016.43 1016.61 1016.80 1017.09 1017.22 1017.34 1017.62 1018.09 1018.48 1018.87 1019.14 1019.34 1019.59 1019.84 1020.12 1020.31 1020.52 1020.71 1020.77 1020.82 1020.90 1021.14 1021.32 1021.34 1021.25 1021.27 1021.30 1021.05 1021.20 1021.24 1021.20 1021.15 1021.07 1021.00
1013.71 1013.83 1014.13 1014.47 1014.80 1015.21 1015.56 1015.96 1016.28 1016.66 1016.88 1017.06 1017.27 1017.52 1017.57 1017.91 1018.35 1018.80 1019.18 1019.45 1019.58 1019.72 1019.96 1020.20 1020.47 1020.67 1020.83 1020.92 1021.10 1021.18 1021.29 1021.43 1021.25 1021.38 1021.42 1021.39 1021.28 1021.38 1021.38 1021.38 1021.36 1021.31 1021.25
1013.52 1013.83 1014.22 1014.65 1014.89 1015.27 1015.74 1016.11 1016.48 1016.83 1017.09 1017.28 1017.46 1017.76 1017.98 1018.34 1018.64 1019.18 1019.47 1019.70 1019.92 1019.97 1020.07 1020.28 1020.65 1020.86 1020.98 1021.05 1021.21 1021.43 1021.49 1021.53 1021.43 1021.35 1021.41 1021.42 1021.53 1021.54 1021.53 1021.53 1021.53 1021.49 1021.49
1013.34 1013.80 1014.32 1014.78 1015.09 1015.34 1015.83 1016.27 1016.59 1016.98 1017.29 1017.51 1017.76 1018.04 1018.34 1018.74 1019.01 1019.37 1019.67 1019.88 1020.11 1020.34 1020.48 1020.55 1020.76 1020.97 1021.11 1021.24 1021.26 1021.36 1021.53 1021.64 1021.39 1021.44 1021.49 1021.49 1021.66 1021.51 1021.57 1021.60 1021.61 1021.58 1021.56
1013.48 1013.73 1014.31 1014.90 1015.18 1015.43 1015.81 1016.36 1016.68 1017.11 1017.50 1017.79 1018.04 1018.41 1018.79 1019.05 1019.29 1019.53 1019.88 1020.06 1020.23 1020.45 1020.66 1020.82 1021.02 1021.22 1021.34 1021.44 1021.53 1021.62 1021.62 1021.67 1021.50 1021.60 1021.59 1021.53 1021.64 1021.46 1021.44 1021.40 1021.60 1021.60 1021.67
1013.91 1014.11 1014.23 1015.03 1015.36 1015.52 1015.85 1016.30 1016.71 1017.15 1017.58 1017.96 1018.29 1018.75 1019.11 1019.29 1019.49 1019.67 1019.94 1020.16 1020.31 1020.52 1020.64 1020.80 1020.95 1021.14 1021.46 1021.61 1021.64 1021.68 1021.66 1021.58 1021.52 1021.52 1021.54 1021.68 1021.57 1021.41 1021.38 1021.35 1021.47 1021.56 1021.62
1014.10 1014.34 1014.54 1014.92 1015.34 1015.65 1015.94 1016.39 1016.80 1017.15 1017.55 1017.95 1018.33 1018.72 1019.09 1019.42 1019.65 1019.84 1020.03 1020.23 1020.45 1020.64 1020.72 1020.85 1020.99 1021.23 1021.39 1021.40 1021.55 1021.65 1021.41 1021.45 1021.41 1021.41 1021.38 1021.54 1021.40 1021.29 1021.25 1021.25 1021.27 1021.33 1021.41
1015.02 1014.44 1014.72 1014.93 1015.32 1015.61 1015.96 1016.46 1016.78 1017.11 1017.55 1017.99 1018.42 1018.79 1019.20 1019.56 1019.83 1019.95 1020.11 1020.32 1020.57 1020.85 1020.92 1020.98 1021.05 1021.11 1021.26 1021.34 1021.34 1021.39 1021.38 1021.32 1021.27 1021.26 1021.32 1021.41 1021.30 1021.16 1021.08 1021.17 1021.16 1021.10 1021.22
1015.00 1014.45 1014.63 1014.90 1015.34 1015.72 1016.04 1016.41 1016.77 1017.10 1017.45 1017.89 1018.40 1018.78 1019.14 1019.52 1019.85 1020.04 1020.15 1020.38 1020.59 1020.71 1020.89 1021.03 1021.09 1021.17 1021.21 1021.23 1021.24 1021.21 1021.26 1021.22 1021.17 1021.19 1021.10 1021.14 1021.11 1021.03 1020.92 1020.87 1020.87 1020.95 1021.07
1015.03 1014.68 1014.70 1014.86 1015.26 1015.67 1016.05 1016.57 1016.81 1017.04 1017.34 1017.72 1018.20 1018.59 1018.91 1019.28 1019.62 1019.86 1020.01 1020.28 1020.52 1020.75 1020.89 1020.95 1021.02 1021.02 1021.02 1021.00 1020.96 1020.97 1020.94 1020.97 1020.98 1021.04 1020.95 1020.95 1020.88 1020.86 1020.76 1020.61 1020.59 1020.65 1020.71
1015.07 1015.32 1014.90 1015.00 1015.12 1015.32 1016.00 1016.50 1016.72 1017.03 1017.35 1017.64 1018.03 1018.31 1018.73 1018.94 1019.26 1019.49 1019.67 1019.90 1020.14 1020.42 1020.58 1020.72 1020.80 1020.89 1020.83 1020.88 1020.69 1020.64 1020.64 1020.69 1020.68 1020.68 1020.57 1020.41 1020.49 1020.64 1020.65 1020.59 1020.53 1020.46 1020.49
1014.61 1015.74 1015.28 1015.16 1014.82 1015.34 1015.24 1015.93 1016.54 1016.95 1017.37 1017.72 1018.03 1018.20 1018.43 1018.81 1019.07 1019.25 1019.42 1019.71 1019.87 1020.18 1020.36 1020.48 1020.55 1020.68 1020.67 1020.62 1020.50 1020.34 1020.36 1020.36 1020.41 1020.41 1020.32 1020.36 1020.19 1020.28 1020.30 1020.27 1020.22 1020.35 1020.48
1013.65 1014.75 1014.95 1015.66 1015.52 1015.52 1015.89 1015.72 1016.31 1016.48 1016.93 1017.61 1017.94 1018.12 1018.38 1018.62 1018.88 1019.11 1019.12 1019.23 1019.67 1020.02 1020.22 1020.22 1020.26 1020.41 1020.41 1020.43 1020.21 1020.16 1019.97 1020.09 1020.04 1020.03 1020.07 1020.07 1020.03 1019.89 1019.84 1019.93 1020.03 1020.03 1020.12
1013.70 1013.87 1014.39 1014.42 1014.85 1015.24 1015.60 1015.36 1015.80 1016.23 1016.73 1017.16 1017.52 1017.81 1018.11 1018.53 1018.64 1018.66 1018.80 1018.85 1019.15 1019.58 1019.82 1019.91 1020.04 1020.08 1020.22 1020.13 1020.11 1019.93 1019.88 1019.84 1019.71 1019.92 1019.84 1019.97 1019.83 1019.73 1019.57 1019.66 1019.79 1019.98 1020.20
1013.60 1013.73 1013.99 1014.28 1014.53 1014.72 1015.22 1015.25 1016.11 1016.50 1016.63 1016.62 1016.76 1017.17 1017.48 1017.95 1018.40 1018.38 1018.36 1018.46 1018.71 1019.09 1019.40 1019.60 1019.77 1019.78 1019.68 1019.85 1019.94 1019.77 1019.61 1019.54 1019.43 1019.65 1019.73 1019.93 1019.85 1019.84 1019.69 1019.71 1019.78 1020.01 1020.19
1013.15 1013.56 1013.70 1014.40 1014.29 1014.34 1014.86 1015.27 1016.01 1015.81 1016.17 1016.28 1016.08 1016.55 1017.06 1017.42 1017.59 1017.95 1018.00 1018.05 1018.25 1018.52 1018.69 1019.07 1019.39 1019.57 1019.42 1019.62 1019.57 1019.54 1019.47 1019.38 1019.49 1019.68 1019.82 1019.85 1019.85 1020.10 1020.12 1020.04 1020.14 1020.25 1020.61
1012.62 1013.03 1013.47 1014.01 1014.11 1014.40 1014.73 1014.97 1015.47 1015.58 1015.74 1015.63 1015.73 1016.03 1016.45 1016.83 1017.20 1017.12 1017.20 1017.38 1017.72 1018.03 1018.31 1018.78 1018.81 1018.97 1019.01 1019.30 1019.45 1019.83 1019.48 1019.35 1019.45 1019.77 1019.80 1019.95 1020.05 1020.25 1020.31 1020.58 1020.73 1020.77 1021.17
1012.72 1012.69 1012.90 1013.11 1013.38 1013.49 1014.20 1014.85 1015.34 1015.65 1016.06 1016.12 1016.37 1016.51 1016.72 1017.04 1016.82 1016.84 1016.47 1016.54 1017.03 1017.48 1017.78 1018.13 1018.47 1018.46 1018.73 1019.40 1019.33 1019.59 1019.60 1019.56 1019.79 1019.73 1019.92 1020.15 1020.26 1020.41 1020.51 1020.85 1021.12 1021.25 1021.41
1012.11 1012.39 1012.54 1012.71 1012.75 1012.90 1013.59 1014.52 1014.71 1015.32 1016.17 1016.65 1016.28 1016.41 1016.74 1016.44 1016.25 1016.68 1016.91 1016.79 1016.85 1017.13 1017.89 1018.26 1018.47 1018.70 1019.04 1019.17 1019.74 1019.70 1019.75 1019.91 1019.80 1019.80 1019.98 1020.16 1020.47 1020.51 1020.78 1021.13 1021.40 1021.77 1021.78
1012.88 1012.77 1012.64 1012.81 1012.88 1013.22 1013.03 1013.58 1014.15 1014.71 1015.42 1015.51 1015.45 1015.68 1016.12 1015.76 1016.05 1016.15 1016.77 1017.11 1017.35 1017.47 1017.94 1018.28 1018.38 1018.68 1019.21 1019.53 1019.63 1019.87 1019.84 1020.06 1020.18 1020.54 1020.09 1020.11 1020.47 1020.70 1020.83 1021.22 1021.54 1021.78 1022.01
1013.29 1013.28 1013.11 1013.02 1012.97 1013.21 1013.58 1013.63 1013.70 1013.85 1014.66 1015.23 1015.00 1015.23 1015.55 1016.13 1015.91 1016.26 1016.42 1017.03 1017.40 1017.44 1017.82 1018.06 1018.30 1018.40 1019.33 1019.65 1019.95 1019.83 1019.60 1019.70 1019.97 1020.47 1020.42 1020.24 1020.24 1020.16 1020.67 1020.97 1021.48 1021.85 1022.10
Thickness
5761 5761 5759 5758 5758 5757 5756 5756 5757 5757 5756 5755 5755 5753 5751 5750 5748 5746 5743 5741 5738 5737 5735 5734 5731 5730 5729 5726 5725 5723 5723 5722 5721 5721 5721 5720 5719 5719 5718 5718 5718 5718 5716
5761 5759 5756 5756 5754 5754 5753 5753 5752 5753 5753 5753 5754 5752 5749 5747 5747 5744 5741 5738 5736 5733 5731 5731 5728 5727 5725 5723 5721 5720 5719 5718 5718 5717 5717 5716 5716 5716 5715 5714 5714 5714 5713
5755 5755 5753 5753 5751 5749 5749 5750 5749 5749 5749 5751 5750 5748 5747 5745 5744 5742 5738 5735 5732 5730 5728 5727 5725 5723 5721 5720 5718 5717 5716 5715 5714 5714 5714 5714 5713 5712 5711 5711 5710 5710 5709
5749 5748 5747 5746 5746 5744 5744 5745 5746 5744 5744 5745 5747 5744 5742 5741 5740 5738 5735 5732 5729 5727 5725 5722 5720 5720 5718 5716 5715 5715 5713 5712 5711 5711 5711 5711 5710 5708 5708 5707 5707 5706 5705
5743 5743 5743 5741 5741 5741 5740 5740 5740 5741 5741 5739 5740 5741 5738 5736 5734 5733 5730 5729 5726 5724 5721 5718 5716 5716 5715 5713 5712 5710 5709 5708 5707 5707 5707 5707 5707 5705 5704 5703 5703 5702 5700
5735 5736 5737 5737 5736 5736 5735 5736 5735 5735 5736 5736 5733 5734 5734 5732 5730 5727 5725 5724 5723 5721 5718 5715 5714 5712 5710 5709 5708 5708 5706 5705 5705 5704 5704 5703 5704 5702 5700 5700 5699 5698 5696
5728 5729 5730 5731 5731 5731 5731 5730 5731 5730 5730 5731 5730 5727 5729 5728 5725 5722 5720 5718 5719 5718 5716 5713 5711 5709 5708 5707 5704 5704 5704 5704 5703 5702 5701 5700 5700 5699 5698 5696 5695 5694 5692
5723 5724 5724 5723 5726 5726 5725 5724 5724 5725 5725 5725 5725 5722 5722 5721 5720 5716 5715 5714 5712 5713 5713 5712 5708 5706 5705 5704 5703 5701 5701 5701 5701 5701 5699 5698 5696 5695 5694 5693 5691 5690 5688
5718 5718 5717 5716 5718 5720 5719 5719 5719 5719 5719 5720 5719 5717 5715 5714 5714 5712 5710 5710 5708 5707 5706 5707 5705 5703 5702 5701 5701 5700 5700 5699 5699 5698 5697 5697 5695 5694 5692 5690 5689 5688 5686
5711 5712 5711 5709 5712 5714 5715 5713 5714 5713 5712 5713 5713 5711 5709 5708 5708 5708 5706 5705 5705 5704 5703 5702 5700 5698 5698 5698 5698 5697 5698 5697 5697 5696 5695 5694 5693 5692 5691 5689 5686 5685 5682
5698 5703 5704 5701 5704 5708 5709 5709 5709 5708 5707 5707 5706 5704 5702 5702 5702 5703 5703 5701 5701 5700 5700 5699 5698 5697 5695 5695 5695 5696 5696 5695 5695 5694 5692 5691 5690 5690 5689 5687 5685 5682 5680
5684 5692 5696 5695 5697 5699 5702 5703 5702 5702 5702 5701 5701 5700 5698 5697 5696 5696 5698 5697 5696 5695 5696 5695 5695 5694 5693 5693 5692 5693 5694 5693 5693 5692 5691 5690 5689 5688 5687 5685 5684 5681 5679
5664 5679 5686 5689 5690 5692 5694 5695 5696 5696 5696 5695 5695 5694 5692 5691 5690 5691 5692 5692 5691 5690 5689 5690 5691 5690 5689 5689 5689 5689 5690 5690 5690 5690 5689 5688 5687 5686 5684 5682 5680 5678 5676
5659 5670 5677 5680 5681 5684 5686 5688 5689 5691 5691 5691 5689 5689 5688 5686 5685 5685 5687 5687 5686 5686 5686 5685 5685 5685 5686 5686 5685 5685 5684 5685 5685 5686 5686 5686 5684 5682 5681 5680 5677 5673 5672
5652 5659 5666 5672 5675 5677 5680 5679 5681 5684 5685 5685 5684 5685 5684 5683 5681 5681 5682 5682 5682 5681 5681 5681 5681 5682 5682 5683 5683 5682 5682 5681 5681 5681 5681 5682 5681 5679 5677 5676 5675 5671 5668
5650 5650 5658 5661 5665 5670 5673 5674 5676 5677 5678 5680 5679 5680 5679 5680 5678 5679 5679 5679 5679 5678 5678 5677 5677 5677 5678 5678 5680 5680 5679 5678 5678 5677 5678 5679 5678 5675 5673 5671 5669 5667 5664
5647 5640 5647 5650 5658 5659 5668 5669 5670 5671 5673 5672 5672 5674 5675 5674 5674 5675 5675 5675 5675 5673 5673 5673 5673 5673 5674 5675 5675 5676 5675 5675 5675 5674 5673 5672 5673 5672 5670 5668 5666 5662 5658
5652 5649 5648 5644 5650 5655 5656 5664 5665 5668 5668 5664 5666 5668 5669 5669 5669 5669 5672 5672 5669 5667 5667 5668 5668 5669 5670 5670 5672 5671 5672 5671 5669 5669 5668 5668 5668 5668 5668 5666 5662 5660 5656
5647 5651 5652 5655 5654 5654 5655 5661 5661 5660 5662 5662 5665 5667 5667 5664 5666 5668 5669 5669 5669 5665 5664 5664 5664 5666 5663 5665 5665 5667 5667 5666 5666 5664 5662 5661 5662 5663 5664 5662 5659 5655 5650
5643 5649 5651 5654 5657 5656 5655 5659 5654 5652 5657 5662 5664 5665 5664 5663 5661 5663 5666 5667 5666 5664 5661 5660 5659 5662 5663 5660 5658 5660 5662 5662 5662 5659 5657 5654 5654 5654 5655 5654 5651 5647 5643
5643 5642 5647 5647 5653 5660 5657 5657 5653 5657 5658 5660 5664 5662 5660 5660 5661 5660 5662 5663 5663 5662 5661 5658 5656 5655 5657 5655 5655 5655 5655 5656 5654 5652 5649 5647 5647 5644 5644 5643 5639 5636 5632
5642 5644 5645 5646 5649 5653 5651 5655 5655 5658 5657 5660 5662 5662 5660 5660 5658 5658 5660 5662 5659 5658 5657 5652 5654 5651 5651 5651 5646 5641 5642 5646 5646 5643 5643 5640 5639 5635 5633 5630 5627 5625 5619
5636 5639 5640 5644 5645 5654 5649 5649 5649 5650 5648 5647 5649 5651 5652 5652 5655 5654 5658 5660 5657 5654 5653 5651 5648 5648 5645 5639 5640 5637 5634 5634 5632 5636 5634 5631 5630 5626 5624 5619 5614 5612 5608
5636 5637 5640 5643 5645 5650 5647 5644 5646 5643 5637 5636 5642 5644 5646 5650 5652 5649 5647 5649 5649 5646 5642 5640 5639 5638 5634 5632 5628 5629 5629 5627 5628 5628 5628 5625 5621 5619 5615 5608 5604 5599 5598
5630 5634 5638 5640 5642 5639 5642 5642 5642 5639 5634 5634 5642 5645 5640 5646 5645 5646 5641 5638 5637 5637 5633 5631 5632 5630 5625 5621 5621 5619 5618 5614 5614 5611 5617 5618 5612 5608 5605 5599 5595 5590 5587
5623 5627 5632 5636 5639 5638 5638 5637 5639 5639 5634 5632 5634 5637 5637 5635 5639 5637 5637 5632 5629 5629 5627 5625 5623 5623 5615 5612 5609 5610 5612 5611 5607 5601 5602 5604 5603 5604 5596 5592 5587 5581 5576